Weather History for Sigonella, Italy

Change the Weather History Date:

Saturday, April 14, 2012

  Actual Average Record
Temperature  
Mean Temperature 59 °F -  
Max Temperature 68 °F 73 °F 77 °F (2013)
Min Temperature 50 °F 50 °F 39 °F (1997)
Degree Days  
Heating Degree Days 6    
Growing Degree Days 9 (Base 50)    
Moisture  
Dew Point 46 °F    
Average Humidity 67    
Maximum Humidity 100    
Minimum Humidity 23    
Precipitation  
Precipitation 0.00 in 0.04 in - ()
Sea Level Pressure  
Sea Level Pressure 29.48 in    
Wind  
Wind Speed 14 mph ()    
Max Wind Speed 25 mph    
Max Gust Speed 38 mph    
Visibility 6.4 miles    
Events      
Averages and records for this station are not official NWS values.
T = Trace of Precipitation, MM = Missing Value Source: Averaged Metar Reports

Daily Weather History Graph

Daily Weather History Graph

Search for Another Location

Airport:

Trip Planner

Search our weather history database for the weather conditions in past years. The results will help you decide how hot, cold, wet, or windy it might be!

Date:

Astronomy

Apr. 14, 2012 Rise Set
Actual Time 6:26 AM CEST 7:34 PM CEST
Civil Twilight 5:59 AM CEST 8:01 PM CEST
Nautical Twilight 5:27 AM CEST 8:33 PM CEST
Astronomical Twilight 4:54 AM CEST 9:07 PM CEST
Moon 2:31 AM CEST (4/14) 1:17 PM CEST (4/14)
Length of Visible Light 14h 02m
Length of Day
13h 08m
Last Quarter, 40% of the Moon is Illuminated
Apr 14
Last Quarter
Apr 21
New
Apr 29
First Quarter
May 6
Full
May 12
Last Quarter

Hourly Weather History & Observations

Time (CEST) Temp. Dew Point Humidity Pressure Visibility Wind Dir Wind Speed Gust Speed Precip Events Conditions
12:55 AM 55.4 °F 53.6 °F 94% 29.39 in 6.2 mi WSW 11.5 mph - N/A   Scattered Clouds
1:55 AM 55.4 °F 53.6 °F 94% 29.39 in 6.2 mi WSW 11.5 mph - N/A   Mostly Cloudy
2:00 AM 55 °F 54 °F 95% 29.41 in 6 mi WSW 11.5 mph - -   Mostly Cloudy
2:55 AM 55.4 °F 51.8 °F 88% 29.39 in 6.2 mi SW 16.1 mph - N/A   Scattered Clouds
3:55 AM 53.6 °F 51.8 °F 94% 29.39 in 6.2 mi WSW 13.8 mph - N/A   Scattered Clouds
4:55 AM 53.6 °F 53.6 °F 100% 29.39 in 6.2 mi WSW 13.8 mph - N/A   Scattered Clouds
5:00 AM 54 °F 53 °F 95% 29.40 in 6 mi WSW 13.8 mph - -   Partly Cloudy
5:55 AM 53.6 °F 53.6 °F 100% 29.39 in 6.2 mi SW 11.5 mph - N/A   Mostly Cloudy
6:55 AM 53.6 °F 51.8 °F 94% 29.39 in 6.2 mi WSW 9.2 mph - N/A   Mostly Cloudy
7:55 AM 55.4 °F 51.8 °F 88% 29.39 in 6.2 mi West 17.3 mph - N/A   Mostly Cloudy
8:00 AM 55 °F 52 °F 84% 29.41 in 6 mi West 17.3 mph - -   Partly Cloudy
8:55 AM 59.0 °F 51.8 °F 77% 29.42 in 6.2 mi WSW 16.1 mph - N/A   Mostly Cloudy
9:55 AM 59.0 °F 51.8 °F 77% 29.44 in 6.2 mi WSW 17.3 mph 28.8 mph N/A   Mostly Cloudy
10:55 AM 62.6 °F 48.2 °F 59% 29.44 in 6.2 mi West 20.7 mph 34.5 mph N/A   Mostly Cloudy
11:00 AM 62 °F 48 °F 50% 29.46 in 7 mi West 20.7 mph - -   Mostly Cloudy
11:55 AM 62.6 °F 44.6 °F 52% 29.44 in 6.2 mi West 23.0 mph 34.5 mph N/A   Mostly Cloudy
12:55 PM 64.4 °F 42.8 °F 45% 29.47 in 6.2 mi West 23.0 mph 34.5 mph N/A   Mostly Cloudy
1:55 PM 66.2 °F 41.0 °F 40% 29.47 in 6.2 mi West 25.3 mph 38.0 mph N/A   Mostly Cloudy
2:00 PM 67 °F 40 °F 26% 29.47 in 9 mi West 25.3 mph - -   Mostly Cloudy
2:55 PM 68.0 °F 39.2 °F 35% 29.47 in 6.2 mi West 24.2 mph 36.8 mph N/A   Scattered Clouds
3:55 PM 66.2 °F 37.4 °F 35% 29.47 in 6.2 mi West 25.3 mph 36.8 mph N/A   Scattered Clouds
4:55 PM 66.2 °F 37.4 °F 35% 29.50 in 6.2 mi West 23.0 mph 34.5 mph N/A   Scattered Clouds
5:00 PM 66 °F 37 °F 23% 29.51 in 9 mi West 23.0 mph - -   Mostly Cloudy
5:55 PM 62.6 °F 35.6 °F 37% 29.53 in 6.2 mi West 20.7 mph 32.2 mph N/A   Scattered Clouds
6:55 PM 60.8 °F 35.6 °F 39% 29.53 in 6.2 mi West 15.0 mph - N/A   Scattered Clouds
7:55 PM 57.2 °F 41.0 °F 55% 29.56 in 6.2 mi WSW 17.3 mph - N/A   Partly Cloudy
8:00 PM 57 °F 41 °F 43% 29.58 in 7 mi WSW 17.3 mph - -   Scattered Clouds
8:55 PM 53.6 °F 46.4 °F 77% 29.59 in 6.2 mi WSW 9.2 mph - N/A   Partly Cloudy
9:55 PM 53.6 °F 44.6 °F 72% 29.62 in 6.2 mi West 10.4 mph - N/A   Partly Cloudy
10:55 PM 50.0 °F 42.8 °F 76% 29.65 in 6.2 mi West 11.5 mph - N/A   Partly Cloudy
11:00 PM 50 °F 43 °F 69% 29.68 in 6 mi West 11.5 mph - -   Scattered Clouds
11:55 PM 50.0 °F 44.6 °F 82% 29.65 in 6.2 mi West 13.8 mph - N/A   Partly Cloudy